Location: Unspecified
(0.0000°N, 0.0000°E)
Time: 09:28:47
(UTC+00:00)

Vanguard 1 - Visible Passes

Search period start: 25 October 2014 00:00
Search period end: 04 November 2014 00:00
Orbit: 652 x 3835 km, 34.2° (Epoch: 22 October)

Date Brightness Start Highest point End Pass type
(mag) Time Alt. Az. Time Alt. Az. Time Alt. Az.
25 Oct 13.2 01:07:25 10° SSW 01:23:01 27° SSE 01:33:19 10° ESE visible
25 Oct 11.4 03:34:09 10° SW 03:49:00 67° SSE 03:56:43 10° ENE visible
25 Oct 13.3 17:55:32 10° W 18:08:42 47° SSW 18:29:40 10° SE visible
25 Oct 14.0 20:24:36 10° WSW 20:39:45 24° SSW 20:56:50 10° SSE visible
25 Oct 13.9 23:00:03 10° SW 23:15:06 20° S 23:27:35 10° SE visible
26 Oct 12.9 01:29:24 10° SW 01:46:07 34° SSE 01:56:23 10° E visible
26 Oct 11.0 03:56:21 10° SW 04:10:50 89° NW 04:18:18 10° NE visible
26 Oct 13.6 18:18:17 10° W 18:31:39 38° SSW 18:51:38 10° SE visible
26 Oct 14.1 20:49:24 10° SW 21:04:09 21° S 21:19:49 10° SE visible
26 Oct 13.7 23:23:17 10° SSW 23:39:21 22° SSE 23:51:52 10° ESE visible
27 Oct 12.5 01:51:18 10° SW 02:08:53 44° SSE 02:18:59 10° E visible
27 Oct 11.0 04:18:53 10° WSW 04:32:25 63° NW 04:39:34 10° NE visible
27 Oct 13.8 18:41:32 10° WSW 18:54:57 31° SSW 19:13:41 10° SE visible
27 Oct 14.1 21:14:09 10° SW 21:28:49 20° S 21:43:31 10° SE visible
27 Oct 13.5 23:45:53 10° SSW 00:13:27 15° ESE 00:15:53 10° ESE visible
28 Oct 12.0 02:13:15 10° SW 02:31:22 57° SSE 02:41:10 10° ENE visible
28 Oct 11.3 04:41:51 10° WSW 04:53:48 43° NW 05:00:34 10° NNE visible
28 Oct 14.0 19:05:19 10° WSW 19:18:37 26° SSW 19:35:59 10° SSE visible
28 Oct 14.0 21:38:25 10° SW 21:53:32 20° S 22:07:52 10° SE visible
29 Oct 13.4 00:08:05 10° SW 00:36:21 18° ESE 00:39:24 10° E visible
29 Oct 11.6 02:49:19 54° SSW 02:53:32 75° SE 03:03:01 10° ENE visible
29 Oct 11.7 05:05:26 10° W 05:15:08 28° NW 05:21:13 10° NNE visible
29 Oct 14.1 19:29:32 10° SW 19:42:40 22° S 19:58:45 10° SSE visible
29 Oct 13.9 22:01:58 10° SSW 22:18:07 22° S 22:27:03 17° SE visible
30 Oct 13.2 00:30:06 10° SW 00:58:41 23° ESE 01:02:26 10° E visible
30 Oct 11.4 03:11:36 57° WSW 03:15:25 84° NW 03:24:33 10° NE visible
30 Oct 14.1 19:53:56 10° SW 20:07:04 20° S 20:22:13 10° SE visible
30 Oct 13.7 22:24:49 10° SSW 22:42:23 25° SSE 22:46:05 24° SSE visible
31 Oct 12.9 00:52:03 10° SW 01:20:38 28° E 01:25:00 10° ENE visible
31 Oct 11.4 03:33:32 50° W 03:37:03 63° NW 03:45:49 10° NE visible
31 Oct 13.8 17:47:27 10° WSW 17:58:25 26° SSW 18:14:28 10° SSE visible
31 Oct 14.1 20:18:09 10° SW 20:31:42 19° S 20:46:31 10° SE visible
31 Oct 13.6 22:47:10 10° SSW 23:05:15 30° SSE 23:05:15 30° SSE visible
01 Nov 12.6 01:14:04 10° SW 01:42:19 34° E 01:47:09 10° ENE visible
01 Nov 11.6 03:55:12 39° WNW 03:58:31 45° NW 04:06:49 10° NNE visible
01 Nov 14.0 18:11:10 10° WSW 18:22:02 22° SSW 18:36:51 10° SSE visible
01 Nov 14.0 20:41:47 10° SSW 20:56:22 20° S 21:11:29 10° SE visible
01 Nov 13.5 23:09:13 10° SW 23:24:30 33° S 23:24:30 33° S visible
02 Nov 12.4 01:36:16 10° SW 02:03:47 39° ENE 02:08:58 10° ENE visible
02 Nov 11.9 04:16:38 28° WNW 04:19:57 31° NW 04:27:33 10° NNE visible
02 Nov 14.1 18:35:14 10° SW 18:46:00 19° S 18:59:50 10° SSE visible
02 Nov 13.9 21:04:45 10° SSW 21:20:51 23° SSE 21:31:09 17° SE visible
02 Nov 13.5 23:31:08 10° SW 23:43:50 34° SSW 23:43:50 34° SSW visible
03 Nov 12.2 02:25:04 42° NE 02:25:04 42° NE 02:30:30 10° NE visible
03 Nov 12.3 04:37:54 19° WNW 04:41:28 21° NW 04:47:53 10° N visible
03 Nov 14.1 18:59:18 10° SW 19:10:17 18° S 19:23:42 10° SE visible
03 Nov 13.7 21:27:09 10° SSW 21:45:00 27° SSE 21:50:32 25° SE visible
03 Nov 13.9 23:53:03 10° SW 00:00:00 24° SSW 00:00:00 24° SSW visible
